BMCB-30 Weather Reports


time (UTC)temp
C
wind
direction
speed
KPH
gust
KPH
rain 1hr
cm
rain 24hr
cm
rain mn
cm
humidity
%
barometer
mb
20260503072043 14 0 0.0 0.0 0.00 0.00 0.00 72 1013.7
20260503071047 13 0 0.0 0.0 0.00 0.00 0.00 77 1013.7
20260503055044 12 0 0.0 0.0 0.00 0.00 0.00 87 1013.5
20260503053044 11 0 0.0 0.0 0.00 0.00 0.00 94 1013.6
20260503050045 10 0 0.0 0.0 0.00 0.00 0.00 97 1013.9
20260503045043 10 0 0.0 0.0 0.00 0.00 0.00 97 1013.9
20260503044044 10 0 0.0 0.0 0.00 0.00 0.00 96 1014.0
20260503043043 11 0 0.0 0.0 0.00 0.00 0.00 96 1014.0
20260503042042 11 0 0.0 0.0 0.00 0.00 0.00 96 1013.9
20260503041045 11 0 0.0 0.0 0.00 0.00 0.00 96 1013.8
20260503035043 11 0 0.0 0.0 0.00 0.00 0.00 95 1014.0
20260503033043 11 0 0.0 0.0 0.00 0.00 0.00 96 1014.2
20260503030044 11 0 0.0 0.0 0.00 0.05 0.00 95 1014.2
20260503024043 11 0 0.0 0.0 0.00 0.05 0.00 95 1014.2
20260503023044 11 0 0.0 0.0 0.00 0.05 0.00 94 1014.3
20260503022045 12 0 0.0 0.0 0.00 0.05 0.00 93 1014.4
20260503021044 12 0 0.0 0.0 0.00 0.05 0.00 94 1014.4
20260503020043 12 0 0.0 0.0 0.00 0.05 0.00 94 1014.4
20260503014042 11 0 0.0 0.0 0.00 0.05 0.00 95 1014.6
20260503013045 11 0 0.0 0.0 0.00 0.05 0.00 96 1014.6
20260503012045 11 0 0.0 0.0 0.00 0.05 0.00 96 1014.8
20260503011043 11 0 0.0 0.0 0.00 0.05 0.00 95 1014.9
20260503010045 11 0 0.0 0.0 0.00 0.05 0.00 95 1014.9
20260503005044 11 0 0.0 0.0 0.00 0.05 0.00 95 1015.1
20260503004044 11 0 0.0 0.0 0.00 0.05 0.00 95 1015.2
20260503003044 12 0 0.0 0.0 0.00 0.05 0.00 94 1015.3
20260503002044 12 0 0.0 0.0 0.00 0.05 0.00 94 1015.3
20260503001043 12 0 0.0 0.0 0.00 0.05 0.00 93 1015.3
20260503000050 12 0 0.0 0.0 0.00 0.05 0.00 93 1015.4
20260502235048 12 0 0.0 0.0 0.00 0.05 0.00 92 1015.4
20260502233047 13 0 0.0 0.0 0.00 0.05 0.00 90 1015.4
20260502232049 13 0 0.0 0.0 0.00 0.05 0.00 89 1015.4
20260502231045 13 0 0.0 0.0 0.00 0.05 0.00 88 1015.4
20260502230046 14 0 0.0 0.0 0.00 0.05 0.00 87 1015.3
20260502225046 15 0 0.0 0.0 0.00 0.05 0.00 85 1015.3
20260502224048 15 0 0.0 0.0 0.00 0.05 0.00 83 1015.3
20260502223046 16 0 0.0 0.0 0.00 0.05 0.00 80 1015.1
20260502222047 16 0 0.0 0.0 0.00 0.05 0.00 80 1015.1
20260502221047 16 0 0.0 0.0 0.00 0.05 0.00 80 1015.2
20260502220046 16 0 0.0 0.0 0.00 0.05 0.00 80 1015.2
20260502215048 16 0 0.0 0.0 0.00 0.05 0.05 80 1015.3
20260502214048 16 0 0.0 0.0 0.00 0.05 0.05 81 1015.3
20260502213051 15 0 0.0 0.0 0.00 0.05 0.05 81 1015.4
20260502211048 15 0 0.0 0.0 0.00 0.05 0.05 82 1015.5
20260502210047 15 0 0.0 0.0 0.00 0.05 0.05 82 1015.5
20260502205048 15 0 0.0 0.0 0.00 0.05 0.05 81 1015.5
20260502204049 15 0 0.0 0.0 0.00 0.05 0.05 82 1015.6
20260502203052 16 0 0.0 0.0 0.00 0.05 0.05 80 1015.6
20260502202052 16 0 0.0 0.0 0.00 0.05 0.05 79 1015.6
20260502201055 16 0 0.0 0.0 0.00 0.05 0.05 80 1015.6
20260502200051 16 0 0.0 0.0 0.00 0.05 0.05 79 1015.6
20260502194047 17 0 0.0 0.0 0.00 0.05 0.05 75 1015.5
20260502193049 17 0 0.0 0.0 0.00 0.05 0.05 73 1015.4
20260502192050 18 0 0.0 0.0 0.00 0.05 0.05 73 1015.3
20260502191050 18 0 0.0 0.0 0.00 0.05 0.05 72 1015.3
20260502190050 18 0 0.0 0.0 0.00 0.05 0.05 73 1015.3
20260502184049 18 0 0.0 0.0 0.00 0.05 0.05 77 1015.3
20260502183050 18 0 0.0 0.0 0.00 0.05 0.05 78 1015.1
20260502181046 20 0 0.0 0.0 0.00 0.05 0.05 70 1015.1
20260502164045 22 0 0.0 0.0 0.00 0.05 0.05 52 1015.3
20260502163047 22 0 0.0 0.0 0.00 0.05 0.05 52 1015.4
20260502162045 22 0 0.0 0.0 0.00 0.05 0.05 53 1015.5
20260502161049 22 0 0.0 0.0 0.00 0.05 0.05 52 1015.6
20260502152045 23 0 0.0 0.0 0.00 0.05 0.05 47 1015.8
20260502151048 24 0 0.0 0.0 0.00 0.05 0.05 47 1016.0
20260502122045 21 0 0.0 0.0 0.00 0.05 0.05 55 1018.7
20260502115043 21 0 0.0 0.0 0.00 0.05 0.05 57 1019.1
20260502114045 21 0 0.0 0.0 0.00 0.05 0.05 58 1019.3
20260502112044 21 0 0.0 0.0 0.00 0.05 0.05 58 1019.5
20260502111044 21 0 0.0 0.0 0.00 0.05 0.05 59 1019.7
20260502110042 21 0 0.0 0.0 0.00 0.05 0.05 59 1019.8
20260502104044 20 0 0.0 0.0 0.00 0.05 0.05 62 1020.0
20260502103044 21 0 0.0 0.0 0.00 0.05 0.05 61 1020.0
20260502102046 21 0 0.0 0.0 0.00 0.05 0.05 61 1020.0
20260502101049 21 0 0.0 0.0 0.00 0.05 0.05 61 1020.1